Location: Beneden-Haastrecht
(52.0012°N, 4.7557°E)
Time: 02:19:19
(UTC+00:00)

COSMO-SKYMED 1 - Pass Details

Date: 24 October 2020
Orbit: 621 x 623 km, 97.9° (Epoch: 27 November)

Event Time Altitude Azimuth Distance (km) Brightness Sun altitude
Rises 18:43:23 0° 8° (N) 2,918 6.0 -21.5°
Reaches altitude 10° 18:45:41 10° 1° (N) 2,007 5.3 -21.9°
Maximum altitude 18:49:43 38° 294° (WNW) 963 4.0 -22.5°
Drops below altitude 10° 18:53:43 10° 226° (SW) 1,992 5.6 -23.1°
Sets 18:56:00 0° 219° (SW) 2,893 6.4 -23.4°
